Regional Weather Roundup
Issued by NWS Northern Indiana

Home | Current Version | Previous Version | Graphics & Text | Print | Product List | Glossary On
Versions: 1 2 3 4 5 6 7 8 9 10 11 12 13 14 15 16 17 18 19 20 21 22 23 24 25 26 27 28 29 30 31 32 33 34 35 36 37 38 39 40 41 42 43 44 45 46 47 48 49 50
000
ASUS43 KIWX 201500
RWRIWX

KIWX WEATHER ROUNDUP
NATIONAL WEATHER SERVICE NORTHERN INDIANA
1000 AM EST SAT JAN 20 2018

NOTE: "FAIR" INDICATES FEW OR NO CLOUDS BELOW 12,000 FEET WITH NO
SIGNIFICANT WEATHER AND/OR OBSTRUCTIONS TO VISIBILITY.

* THESE STATIONS ARE NOT UNDER NWS QUALITY CONTROL. THEY ALSO MAY NOT
  REPORT WEATHER SUCH AS PRECIPITATION OR FOG.

INZ001>027-201600-
NORTHERN INDIANA

CITY           SKY/WX    TMP DP  RH WIND       PRES   REMARKS
GARY*          PTSUNNY   36  28  75 SW7       29.95R
KNOX*          FAIR      32  28  86 SW8       29.96R WCI  25
SOUTH BEND     FAIR      32  26  78 SW15G22   29.95R WCI  22
ELKHART*       SUNNY     32  27  80 SW9       29.95R WCI  24
GOSHEN         FAIR      32  26  78 SW14      29.96R WCI  22
MONTICELLO*    FAIR      32  26  77 SW13      29.99R WCI  22
FORT WAYNE     FAIR      34  27  75 SW15      29.99R WCI  24
PERU/GRISSOM   FAIR      34  29  82 SW18      29.99R WCI  23

$$
INZ028>050-201600-
CENTRAL INDIANA

CITY           SKY/WX    TMP DP  RH WIND       PRES   REMARKS
LAFAYETTE      FAIR      34  27  75 SW8       30.02R WCI  27
MUNCIE*        FAIR      35  23  61 SW14      30.02R WCI  26
INDIANAPOLIS   PTSUNNY   37  26  64 SW10      30.06R

$$
MIZ043>046-050>051-056>058-064>065-071>073-077>080-201600-
SOUTHWEST LOWER MICHIGAN

CITY           SKY/WX    TMP DP  RH WIND       PRES   REMARKS
BATTLE CREEK   FAIR      33  26  75 SW13      29.92R WCI  24
BENTON HARBOR  FAIR      36  26  67 S8        29.92R
COLDWATER*     FAIR      33  27  80 SW10      29.93R WCI  25
HILLSDALE*     FAIR      34  27  75 SW12      29.91R WCI  25
HOLLAND        FAIR      37  31  78 SW12      29.90R
GRAND RAPIDS   PTSUNNY   37  30  75 SW12      29.89R
KALAMAZOO      FAIR      35  27  72 SW9       29.93R WCI  28
THREE RIVERS*  FAIR      34  28  78 SW8       29.94R WCI  27

$$
OHZ001>008-015>018-024>025-201600-
NORTHWEST OHIO

CITY           SKY/WX    TMP DP  RH WIND       PRES   REMARKS
FINDLAY        FAIR      37  25  61 SW14      29.99R
TOLEDO EXPRESS FAIR      35  27  72 SW16G23   29.96R WCI  25
TOLEDO METCALF FAIR      34  26  72 SW14      29.98R WCI  25
LIMA           FAIR      35  25  66 SW13      30.00R WCI  26

$$
AND FOR LAKE MICHIGAN COASTAL AND OPEN LAKE BUOY OBSERVATIONS

STATION/POSITION TEMP    WIND        PRES    VSBY  WAVE
                 AIR SEA DIR/SP/G                  HT/PER
                 (F)     (DEG/KT/KT) (MB)    (MI)  (FT/S)
CALUMET HARBOR    34     200/  8/ 13 1012.8R
MICHIGAN CITY     36     190/ 13/ 16   N/A
BURNS HARBOR      35     210/ 10/ 17 1014.2R
SAINT JOSEPH      35     200/ 12/ 17 1013.2

$$
&&




USA.gov is the U.S. government's official web portal to all federal, state and local government web resources and services.